Location: SFA Observatory
(31.7598°N, 94.6613°W)
Time: 17:53:36
(UTC-06:00)

Amateur Radio Satellites - All Passes

Search period start: 22 January 2018 17:23
Search period end: 23 January 2018 17:23
Location: SFA Observatory, 31.7598°N, 94.6613°W

Satellite Date Start Highest point End Downlink Frequencies (MHz)
Time Altitude Azimuth
RS-15 22 Jan 17:26:24 17:38:01 76° 61° (ENE) 17:49:02 29.354- 29.394
KAITUO 1B 22 Jan 17:28:46 17:32:11 34° 74° (ENE) 17:35:36 145.475/437.950
XW-2F 22 Jan 17:33:36 17:37:20 57° 76° (ENE) 17:41:04 145.980 - 146.000
BEESAT 3 22 Jan 17:35:18 17:37:18 14° 52° (NE) 17:39:17 437.485
NUDT-PHONESAT 22 Jan 17:36:00 17:39:30 40° 75° (ENE) 17:43:00 437.300
XW-2D 22 Jan 17:44:56 17:48:45 84° 258° (WSW) 17:52:35 145.860 - 145.880
DOVE 4 22 Jan 17:45:26 17:46:21 11° 266° (W) 17:47:16 437.250
KKS-1 22 Jan 17:52:20 17:56:48 76° 283° (WNW) 18:01:14 437.445
HO-68 22 Jan 17:56:31 18:03:16 47° 69° (ENE) 18:10:02 435.675
SEEDS 22 Jan 17:59:51 18:02:41 18° 70° (ENE) 18:05:32 437.485
STARS 22 Jan 18:02:43 18:06:59 48° 100° (E) 18:11:16 437.465
XW-2B 22 Jan 18:02:45 18:06:28 49° 260° (W) 18:10:11 145.730 - 145.750
SRMSAT 22 Jan 18:12:47 18:13:40 10° 199° (SSW) 18:14:33 437.500
CUTE 1.7 + AOD 2 22 Jan 18:14:53 18:19:00 49° 75° (ENE) 18:23:08 437.475
ISS 22 Jan 18:19:01 18:19:20 10° 125° (SE) 18:19:38 437.550
BEESAT 2 22 Jan 18:28:06 18:30:07 13° 52° (NE) 18:32:06 435.950
PCSat 22 Jan 18:32:16 18:37:09 33° 59° (ENE) 18:42:00 145.827
CUTE-I 22 Jan 18:33:22 18:38:18 39° 261° (W) 18:43:15 437.470
XW-2C 22 Jan 18:34:20 18:37:03 18° 264° (W) 18:39:47 145.795 - 145.815
LilacSat-2 22 Jan 18:34:55 18:37:28 17° 265° (W) 18:40:01 437.200
CUBEBUG 2 22 Jan 18:47:20 18:51:39 76° 76° (ENE) 18:56:09 437.445
UWE-3 22 Jan 18:48:40 18:52:47 40° 74° (ENE) 18:57:01 435.000/436.395/437.385
STRAND 1 22 Jan 18:53:33 18:57:32 22° 96° (E) 19:01:29 437.568
XW-2A 22 Jan 18:59:11 19:02:03 25° 74° (ENE) 19:04:55 145.665 - 145.685
KAITUO 1B 22 Jan 19:05:11 19:06:12 11° 266° (W) 19:07:13 145.475/437.950
ZACube-1 22 Jan 19:07:55 19:11:54 33° 73° (ENE) 19:15:56 437.345
AAUSAT CUBESAT 2 22 Jan 19:09:21 19:13:20 49° 75° (ENE) 19:17:19 437.432
BEESAT 3 22 Jan 19:11:21 19:14:57 37° 247° (WSW) 19:18:29 437.485
AO-73 22 Jan 19:13:24 19:17:22 33° 73° (ENE) 19:21:25 145.935
AO-85 22 Jan 19:27:15 19:29:05 12° 49° (NE) 19:30:55 145.980
nSIGHT-1 22 Jan 19:30:45 19:33:49 52° 317° (NW) 19:36:54 .
SEEDS 22 Jan 19:34:29 19:38:07 28° 263° (W) 19:41:45 437.485
RS-15 22 Jan 19:41:02 19:49:03 23° 259° (WSW) 19:56:54 29.354- 29.394
STARS 22 Jan 19:41:09 19:42:50 12° 293° (WNW) 19:44:32 437.465
Oscar 11 22 Jan 19:44:14 19:48:22 46° 75° (ENE) 19:52:32 .
HO-68 22 Jan 19:45:17 19:51:05 26° 263° (W) 19:56:54 435.675
ISS 22 Jan 19:52:16 19:55:26 48° 318° (NW) 19:58:36 437.550
BEESAT 2 22 Jan 20:04:15 20:07:59 41° 247° (WSW) 20:11:40 435.950
PCSat 22 Jan 20:15:55 20:20:20 26° 253° (WSW) 20:24:43 145.827
UWE-3 22 Jan 20:27:08 20:29:22 14° 267° (W) 20:31:38 435.000/436.395/437.385
FO-29 22 Jan 20:27:49 20:33:01 82° 103° (ESE) 20:38:27 435.910
STRAND 1 22 Jan 20:32:06 20:36:41 33° 289° (WNW) 20:41:15 437.568
XW-2A 22 Jan 20:33:26 20:34:42 12° 266° (W) 20:35:58 145.665 - 145.685
ZACube-1 22 Jan 20:45:18 20:48:11 17° 266° (W) 20:51:07 437.345
AO-73 22 Jan 20:50:44 20:53:36 17° 266° (W) 20:56:32 145.935
DELFI C3 22 Jan 21:01:14 21:05:05 62° 76° (ENE) 21:08:56 145.870
AO-85 22 Jan 21:04:54 21:10:02 86° 243° (WSW) 21:15:22 145.980
Max Valier Satellite 22 Jan 21:14:00 21:17:39 56° 76° (ENE) 21:21:20 145.860
TIGRISAT 22 Jan 21:21:34 21:25:33 27° 96° (E) 21:29:28 435.000
Oscar 11 22 Jan 21:23:19 21:24:40 11° 267° (W) 21:26:01 .
EO-88 22 Jan 21:27:43 21:31:16 52° 76° (ENE) 21:34:50 145.990 - 145.960
UNISAT 6 22 Jan 21:37:02 21:41:33 45° 99° (E) 21:45:59 437.425
YUBILEINY 22 Jan 22:03:43 22:11:14 33° 86° (E) 22:18:43 435.215
ESTCUBE 1 22 Jan 22:18:30 22:21:59 22° 70° (ENE) 22:25:29 437.505/2401.250
LO-87 22 Jan 22:40:04 22:43:29 47° 76° (ENE) 22:46:57 145.935 - 145.965
PRISM 22 Jan 22:44:32 22:48:29 49° 100° (E) 22:52:28 437.425
TIGRISAT 22 Jan 22:58:20 23:02:02 23° 290° (WNW) 23:05:43 435.000
POLYITAN 1 22 Jan 23:11:12 23:12:39 11° 93° (E) 23:14:07 437.675
UNISAT 6 22 Jan 23:15:16 23:17:47 14° 292° (WNW) 23:20:17 437.425
NANOSAT C BR1 22 Jan 23:23:47 23:26:12 15° 94° (E) 23:28:35 145.865
SPROUT 22 Jan 23:24:06 23:27:35 25° 72° (ENE) 23:31:05 437.525
QB50P2 22 Jan 23:39:01 23:42:49 30° 98° (E) 23:46:35 145.880/145.840
VELOX 1 22 Jan 23:44:28 23:47:57 24° 71° (ENE) 23:51:27 145.980
AIST 2D 22 Jan 23:46:29 23:49:48 44° 284° (WNW) 23:53:05 435.315
ESTCUBE 1 22 Jan 23:54:49 23:58:35 26° 263° (W) 00:02:23 437.505/2401.250
YUBILEINY 22 Jan 23:59:22 00:07:39 45° 282° (WNW) 00:15:59 435.215
O/OREOS (USA 219) 22 Jan 23:59:42 00:04:14 86° 104° (ESE) 00:08:43 437.305
DUCHIFAT 1 23 Jan 00:04:45 00:08:47 40° 99° (E) 00:12:46 145.980
EO-79 23 Jan 00:08:43 00:12:58 65° 101° (E) 00:17:11 145.935-145.965
NO-84 23 Jan 00:23:29 00:26:22 87° 233° (SW) 00:29:25 435.350 FM
Oscar 19 23 Jan 00:36:47 00:38:43 12° 93° (E) 00:40:38 437.125/150
POLYITAN 1 23 Jan 00:44:30 00:48:34 43° 286° (WNW) 00:52:37 437.675
50 SAT 23 Jan 00:54:40 00:56:41 16° 72° (ENE) 00:58:43 437.505
AO-91 23 Jan 00:55:54 00:59:53 26° 98° (E) 01:04:06 145.960
BUGSAT 1 23 Jan 00:57:12 01:01:05 34° 99° (E) 01:04:56 437.445
NANOSAT C BR1 23 Jan 00:58:04 01:01:56 34° 287° (WNW) 01:05:45 145.865
FALCONSAT 3 23 Jan 00:58:27 00:59:14 11° 145° (SE) 01:00:00 435.103
SPROUT 23 Jan 01:00:16 01:03:22 20° 264° (W) 01:06:29 437.525
UKube-1 23 Jan 01:12:34 01:16:03 25° 71° (ENE) 01:19:33 .
QB50P2 23 Jan 01:15:31 01:18:18 17° 291° (WNW) 01:21:04 145.880/145.840
VELOX 1 23 Jan 01:20:47 01:24:14 23° 263° (W) 01:27:44 145.980
DX 1 23 Jan 01:28:31 01:32:49 71° 75° (ENE) 01:37:07 434.975-435.025
DUCHIFAT 1 23 Jan 01:42:04 01:44:00 13° 292° (WNW) 01:45:55 145.980
ITUPSAT 1 23 Jan 01:52:35 01:53:19 10° 64° (ENE) 01:54:03 437.325
MOZHAYETS 4 23 Jan 01:58:05 02:01:40 23° 70° (ENE) 02:05:16
nSIGHT-1 23 Jan 02:01:55 02:03:52 15° 34° (NE) 02:05:49 .
Oscar 19 23 Jan 02:13:15 02:18:19 59° 286° (WNW) 02:23:21 437.125/150
Gurwin Techsat 1B 23 Jan 02:17:44 02:23:02 75° 285° (WNW) 02:28:19 435.225
AO-7 23 Jan 02:22:55 02:28:10 18° 95° (E) 02:33:21 .
ISS 23 Jan 02:24:32 02:26:48 17° 35° (NE) 02:29:02 437.550
50 SAT 23 Jan 02:26:34 02:28:14 14° 264° (W) 02:29:55 437.505
BEESAT 23 Jan 02:27:02 02:31:01 27° 70° (ENE) 02:35:00 436.000
AO-91 23 Jan 02:32:09 02:36:09 28° 287° (WNW) 02:40:27 145.960
BUGSAT 1 23 Jan 02:33:35 02:36:05 15° 291° (WNW) 02:38:33 437.445
FALCONSAT 3 23 Jan 02:34:16 02:37:50 51° 156° (SSE) 02:41:25 435.103
UKube-1 23 Jan 02:48:43 02:51:57 21° 263° (W) 02:55:13 .
ITAMSAT 1 23 Jan 03:25:03 03:29:29 28° 98° (E) 03:33:54 435.822/435.867
ITUPSAT 1 23 Jan 03:25:46 03:30:30 66° 258° (WSW) 03:35:16 437.325
MOZHAYETS 4 23 Jan 03:34:43 03:38:37 27° 263° (W) 03:42:33
nSIGHT-1 23 Jan 03:37:08 03:40:08 40° 229° (SW) 03:43:08 .
CUBESAT XI-V 23 Jan 03:43:15 03:47:57 81° 77° (ENE) 03:52:39 437.345
ISS 23 Jan 04:00:19 04:03:21 35° 230° (SW) 04:06:22 437.550
BEESAT 23 Jan 04:04:52 04:08:40 24° 263° (W) 04:12:30 436.000
DOVE 4 23 Jan 04:07:59 04:11:10 19° 96° (E) 04:14:26 437.250
AO-7 23 Jan 04:13:07 04:21:28 77° 290° (WNW) 04:29:46 .
FALCONSAT 3 23 Jan 04:13:18 04:16:55 54° 350° (N) 04:20:32 435.103
SO-50 23 Jan 04:29:25 04:33:48 66° 116° (ESE) 04:38:15 436.795
KKS-1 23 Jan 04:45:10 04:49:26 51° 74° (ENE) 04:53:43 437.445
STARS 23 Jan 04:54:52 04:58:16 23° 70° (ENE) 05:01:42 437.465
ITAMSAT 1 23 Jan 05:04:26 05:08:47 28° 291° (WNW) 05:13:08 435.822/435.867
CUTE-I 23 Jan 05:18:12 05:19:53 11° 93° (E) 05:21:33 437.470
XW-2D 23 Jan 05:23:38 05:25:34 14° 94° (E) 05:27:30 145.860 - 145.880
RS-15 23 Jan 05:36:18 05:42:28 15° 98° (E) 05:48:36 29.354- 29.394
XW-2B 23 Jan 05:40:25 05:43:23 22° 96° (E) 05:46:20 145.730 - 145.750
DOVE 4 23 Jan 05:44:49 05:48:47 32° 287° (WNW) 05:52:57 437.250
M-CUBED/EXP-1 PRIME 23 Jan 05:50:51 05:53:45 30° 291° (WNW) 05:56:37 437.505
FALCONSAT 3 23 Jan 05:52:42 05:56:16 48° 6° (N) 05:59:50 435.103
STRAND 1 23 Jan 06:05:06 06:08:40 20° 68° (ENE) 06:12:16 437.568
CUTE 1.7 + AOD 2 23 Jan 06:06:31 06:08:14 12° 93° (E) 06:09:57 437.475
AO-7 23 Jan 06:09:15 06:12:50 13° 306° (NW) 06:16:26 .
XW-2C 23 Jan 06:10:18 06:14:00 62° 101° (E) 06:17:41 145.795 - 145.815
LilacSat-2 23 Jan 06:11:21 06:15:07 72° 101° (E) 06:18:50 437.200
SO-50 23 Jan 06:13:10 06:14:40 11° 312° (NW) 06:16:12 436.795
KKS-1 23 Jan 06:25:30 06:26:11 10° 267° (W) 06:26:54 437.445
STARS 23 Jan 06:30:59 06:34:27 23° 263° (W) 06:37:56 437.465
FO-29 23 Jan 06:35:31 06:40:29 22° 69° (ENE) 06:45:03 435.910
KAITUO 1B 23 Jan 06:37:48 06:41:28 79° 283° (WNW) 06:45:08 145.475/437.950
CUBEBUG 2 23 Jan 06:43:25 06:47:19 25° 96° (E) 06:51:11 437.445
NUDT-PHONESAT 23 Jan 06:44:01 06:47:39 68° 283° (WNW) 06:51:15 437.300
XW-2F 23 Jan 06:44:13 06:47:46 44° 285° (WNW) 06:51:18 145.980 - 146.000
UWE-3 23 Jan 06:44:54 06:46:59 13° 92° (E) 06:49:04 435.000/436.395/437.385
CUTE-I 23 Jan 06:54:58 07:00:15 66° 285° (WNW) 07:05:31 437.470
XW-2D 23 Jan 06:56:32 06:59:42 27° 287° (WNW) 07:02:53 145.860 - 145.880
AAUSAT CUBESAT 2 23 Jan 06:58:30 06:59:39 11° 93° (E) 07:00:47 437.432
XW-2B 23 Jan 07:14:52 07:17:20 17° 289° (WNW) 07:19:48 145.730 - 145.750
HO-68 23 Jan 07:16:39 07:23:49 79° 104° (ESE) 07:30:59 435.675
SEEDS 23 Jan 07:22:17 07:26:24 66° 100° (E) 07:30:32 437.485
FALCONSAT 3 23 Jan 07:31:47 07:35:26 71° 202° (SSW) 07:39:05 435.103
Oscar 11 23 Jan 07:38:13 07:40:01 12° 93° (E) 07:41:49 .
CUTE 1.7 + AOD 2 23 Jan 07:40:15 07:44:10 39° 286° (WNW) 07:48:03 437.475
RS-15 23 Jan 07:40:49 07:53:06 81° 114° (ESE) 08:05:22 29.354- 29.394
STRAND 1 23 Jan 07:42:49 07:47:31 38° 261° (W) 07:52:15 437.568
XW-2A 23 Jan 07:57:10 08:00:27 54° 101° (E) 08:03:41 145.665 - 145.685
TIGRISAT 23 Jan 08:17:00 08:18:57 13° 67° (ENE) 08:20:55 435.000
FO-29 23 Jan 08:18:28 08:25:14 51° 259° (W) 08:31:16 435.910
UWE-3 23 Jan 08:19:10 08:23:36 46° 286° (WNW) 08:27:57 435.000/436.395/437.385
CUBEBUG 2 23 Jan 08:19:53 08:23:46 26° 289° (WNW) 08:27:37 437.445
YUBILEINY 23 Jan 08:24:42 08:25:38 10° 65° (ENE) 08:26:34 435.215
JUGNU 23 Jan 08:29:00 08:32:41 17° 167° (SSE) 08:36:23 437.505
AAUSAT CUBESAT 2 23 Jan 08:31:21 08:35:12 41° 286° (WNW) 08:39:03 437.432
UNISAT 6 23 Jan 08:31:29 08:34:48 21° 70° (ENE) 08:38:12 437.425
ZACube-1 23 Jan 08:36:45 08:41:12 57° 284° (WNW) 08:45:31 437.345
AO-73 23 Jan 08:41:50 08:46:15 58° 284° (WNW) 08:50:33 145.935
DELFI C3 23 Jan 08:44:57 08:46:06 11° 93° (E) 08:47:15 145.870
BEESAT 3 23 Jan 08:55:06 08:59:02 73° 298° (WNW) 09:03:01 437.485
HO-68 23 Jan 09:06:37 09:10:41 16° 300° (WNW) 09:14:45 435.675
PCSat 23 Jan 09:08:13 09:13:36 84° 114° (ESE) 09:19:03 145.827
FALCONSAT 3 23 Jan 09:11:54 09:14:09 16° 213° (SSW) 09:16:23 435.103
Oscar 11 23 Jan 09:12:14 09:16:17 41° 286° (WNW) 09:20:18 .
PRISM 23 Jan 09:29:41 09:32:26 18° 70° (ENE) 09:35:10 437.425
BEESAT 2 23 Jan 09:49:42 09:53:40 74° 297° (WNW) 09:57:43 435.950
TIGRISAT 23 Jan 09:50:55 09:55:07 46° 261° (W) 09:59:28 435.000
RS-15 23 Jan 09:56:45 10:06:54 29° 316° (NW) 10:16:59 29.354- 29.394
UNISAT 6 23 Jan 10:07:36 10:11:18 26° 264° (W) 10:15:06 437.425
O/OREOS (USA 219) 23 Jan 10:14:38 10:19:07 71° 71° (ENE) 10:23:35 437.305
YUBILEINY 23 Jan 10:15:08 10:23:51 74° 83° (E) 10:32:30 435.215
AIST 2D 23 Jan 10:15:39 10:18:32 24° 74° (ENE) 10:21:26 435.315
JUGNU 23 Jan 10:16:27 10:21:06 24° 176° (S) 10:25:44 437.505
DELFI C3 23 Jan 10:17:17 10:20:55 37° 286° (WNW) 10:24:33 145.870
Max Valier Satellite 23 Jan 10:22:09 10:25:42 47° 285° (WNW) 10:29:13 145.860
QB50P2 23 Jan 10:28:22 10:30:12 13° 68° (ENE) 10:32:01 145.880/145.840
EO-88 23 Jan 10:34:14 10:37:46 53° 283° (WNW) 10:41:16 145.990 - 145.960
SRMSAT 23 Jan 10:43:46 10:46:21 13° 163° (SSE) 10:48:56 437.500
DUCHIFAT 1 23 Jan 10:52:35 10:55:10 16° 69° (ENE) 10:57:45 145.980
PCSat 23 Jan 10:55:42 10:57:38 12° 310° (NW) 10:59:34 145.827
EO-79 23 Jan 10:56:27 10:59:52 24° 71° (ENE) 11:03:19 145.935-145.965
PRISM 23 Jan 11:04:03 11:07:27 26° 262° (W) 11:10:52 437.425
AO-85 23 Jan 11:15:02 11:18:53 77° 297° (WNW) 11:23:01 145.980
POLYITAN 1 23 Jan 11:31:19 11:35:30 68° 76° (ENE) 11:39:45 437.675
BUGSAT 1 23 Jan 11:43:46 11:45:29 12° 67° (ENE) 11:47:11 437.445
NANOSAT C BR1 23 Jan 11:44:12 11:48:24 87° 78° (ENE) 11:52:39 145.865
LO-87 23 Jan 11:44:26 11:48:01 62° 283° (WNW) 11:51:35 145.935 - 145.965
Oscar 19 23 Jan 11:49:29 11:51:16 12° 64° (ENE) 11:53:03 437.125/150
AIST 2D 23 Jan 11:49:56 11:51:38 13° 266° (W) 11:53:22 435.315
ESTCUBE 1 23 Jan 11:51:11 11:55:40 85° 287° (WNW) 12:00:08 437.505/2401.250
Gurwin Techsat 1B 23 Jan 11:58:39 11:59:46 11° 63° (ENE) 12:00:52 435.225
QB50P2 23 Jan 12:01:33 12:05:32 41° 261° (W) 12:09:34 145.880/145.840
JUGNU 23 Jan 12:05:02 12:09:32 23° 187° (S) 12:14:03 437.505
YUBILEINY 23 Jan 12:14:22 12:19:36 18° 279° (W) 12:24:52 435.215
DUCHIFAT 1 23 Jan 12:26:45 12:30:30 31° 262° (W) 12:34:17 145.980
SRMSAT 23 Jan 12:30:22 12:34:53 23° 172° (S) 12:39:26 437.500
EO-79 23 Jan 12:32:23 12:35:31 20° 264° (W) 12:38:41 145.935-145.965
SPROUT 23 Jan 12:49:10 12:53:28 83° 284° (WNW) 12:57:46 437.525
SO-50 23 Jan 13:06:08 13:09:17 17° 52° (NE) 13:12:27 436.795
VELOX 1 23 Jan 13:14:20 13:18:45 85° 283° (WNW) 13:23:09 145.980
BUGSAT 1 23 Jan 13:16:35 13:20:23 39° 261° (W) 13:24:16 437.445
AO-7 23 Jan 13:17:36 13:22:41 18° 57° (ENE) 13:27:46 .
DX 1 23 Jan 13:22:31 13:25:28 18° 96° (E) 13:28:25 434.975-435.025
Oscar 19 23 Jan 13:24:47 13:29:56 68° 258° (WSW) 13:35:07 437.125/150
AO-91 23 Jan 13:25:01 13:28:15 47° 260° (W) 13:31:35 145.960
Gurwin Techsat 1B 23 Jan 13:33:41 13:38:58 77° 258° (WSW) 13:44:18 435.225
50 SAT 23 Jan 13:44:14 13:46:51 24° 98° (E) 13:49:26 437.505
JUGNU 23 Jan 13:54:55 13:57:55 14° 196° (SSW) 14:00:56 437.505
SRMSAT 23 Jan 14:18:41 14:23:31 26° 182° (S) 14:28:22 437.500
ITAMSAT 1 23 Jan 14:38:23 14:42:37 27° 69° (ENE) 14:46:52 435.822/435.867
UKube-1 23 Jan 14:39:08 14:43:27 89° 290° (WNW) 14:47:45 .
RS-15 23 Jan 14:39:38 14:46:09 16° 30° (NNE) 14:52:29 29.354- 29.394
SO-50 23 Jan 14:45:23 14:49:56 46° 246° (WSW) 14:54:29 436.795
DX 1 23 Jan 14:57:51 15:01:37 30° 288° (WNW) 15:05:23 434.975-435.025
AO-7 23 Jan 15:05:59 15:14:21 86° 253° (WSW) 15:22:46 .
ITUPSAT 1 23 Jan 15:31:11 15:35:49 46° 100° (E) 15:40:25 437.325
NO-84 23 Jan 15:33:35 15:36:54 87° 305° (NW) 15:40:00 435.350 FM
MOZHAYETS 4 23 Jan 15:33:44 15:38:22 80° 282° (WNW) 15:42:56
CUBESAT XI-V 23 Jan 15:45:11 15:49:09 28° 97° (E) 15:53:06 437.345
SRMSAT 23 Jan 16:08:00 16:12:07 19° 192° (SSW) 16:16:15 437.500
BEESAT 23 Jan 16:08:42 16:13:27 64° 285° (WNW) 16:18:10 436.000
ITAMSAT 1 23 Jan 16:17:31 16:21:55 28° 262° (W) 16:26:21 435.822/435.867
M-CUBED/EXP-1 PRIME 23 Jan 16:30:10 16:34:33 73° 255° (WSW) 16:38:39 437.505
CUTE-I 23 Jan 16:35:21 16:37:33 13° 64° (ENE) 16:39:46 437.470
KKS-1 23 Jan 16:42:19 16:44:48 15° 95° (E) 16:47:16 437.445
DOVE 4 23 Jan 16:45:08 16:49:21 53° 260° (W) 16:53:27 437.250
XW-2C 23 Jan 16:47:44 16:49:55 15° 70° (ENE) 16:52:07 145.795 - 145.815
LilacSat-2 23 Jan 16:49:07 16:51:40 17° 71° (ENE) 16:54:13 437.200
RS-15 23 Jan 16:50:26 17:01:52 58° 57° (ENE) 17:12:40 29.354- 29.394
AO-7 23 Jan 17:04:37 17:07:55 13° 267° (W) 17:11:14 .
ITUPSAT 1 23 Jan 17:10:32 17:13:11 15° 293° (WNW) 17:15:50 437.325
KAITUO 1B 23 Jan 17:13:03 17:15:55 21° 72° (ENE) 17:18:46 145.475/437.950
BEESAT 3 23 Jan 17:17:41 17:19:36 13° 52° (NE) 17:21:29 437.485
